Location: Tierra del Sol
(32.6128°N, 116.3319°W)
Time: 18:20:14
(UTC-08:00)

OTV 5 (USA 277) - Pass Details

Date: 15 October 2017
Orbit: 404 x 417 km, 43.0° (Epoch: 07 September)

Event Time Altitude Azimuth Distance (km) Brightness Sun altitude
Rises 18:48:49 0° 291° (WNW) 2,351 ? -8.5°
Reaches altitude 10° 18:51:37 10° 316° (NW) 1,490 ? -9.1°
Maximum altitude 18:53:38 15° 353° (N) 1,227 ? -9.5°
Drops below altitude 10° 18:55:40 10° 30° (NNE) 1,490 ? -10.0°
Enters shadow 18:56:30 - 40° (NE) 1,713 ? -10.1°
